When you browse on this site, cookies collect data to enhance your experience and personalize the content and advertising you see.
Visit our Privacy Policy to learn more. By continuing to use the site, you agree to this use of cookies and data.
  • en Suisse
  • Liste des pays
  • À 7 jours
  • Température de l'eau
  • Carte satellitaire
  • Carte météo
  • Widgets météo
  • user-avatar
    Se connecter

    Météo par heure à Hoyerswerda

    Ce jour, 27 Mai, Lundi

    Heure Température Précipitation Vent Pression Humidité
    00:00 +14°C° 0 mm 3 m/s 747 mmHg 84%
    01:00 +13°C° 0 mm 3 m/s 747 mmHg 84%
    02:00 +13°C° 0 mm 3 m/s 746 mmHg 83%
    03:00 +13°C° 0 mm 3 m/s 746 mmHg 82%
    04:00 +13°C° 0 mm 3 m/s 746 mmHg 80%
    05:00 +14°C° 0 mm 3 m/s 746 mmHg 77%
    06:00 +15°C° 0 mm 4 m/s 746 mmHg 74%
    07:00 +18°C° 0 mm 4 m/s 746 mmHg 71%
    08:00 +19°C° 0 mm 4 m/s 746 mmHg 67%
    09:00 +20°C° 0 mm 5 m/s 746 mmHg 63%
    10:00 +22°C° 0 mm 5 m/s 746 mmHg 59%
    11:00 +22°C° 0.1 mm 5 m/s 746 mmHg 57%
    12:00 +23°C° 0.1 mm 4 m/s 745 mmHg 56%
    13:00 +25°C° 0.1 mm 4 m/s 745 mmHg 54%
    14:00 +23°C° 0.6 mm 4 m/s 745 mmHg 60%
    15:00 +22°C° 0.6 mm 3 m/s 745 mmHg 66%
    16:00 +22°C° 0.6 mm 3 m/s 744 mmHg 72%
    17:00 +21°C° 0.8 mm 2 m/s 744 mmHg 76%
    18:00 +20°C° 0.8 mm 2 m/s 744 mmHg 81%
    19:00 +20°C° 0.8 mm 1 m/s 744 mmHg 86%
    20:00 +19°C° 0.2 mm 1 m/s 744 mmHg 88%
    21:00 +18°C° 0.2 mm 1 m/s 744 mmHg 89%
    22:00 +16°C° 0.2 mm 1 m/s 744 mmHg 91%
    23:00 +15°C° 0 mm 1 m/s 743 mmHg 92%

    Demain, 28 Mai, Mardi

    Heure Température Précipitation Vent Pression Humidité
    00:00 +15°C° 0 mm 1 m/s 743 mmHg 93%
    01:00 +15°C° 0 mm 1 m/s 743 mmHg 94%
    02:00 +15°C° 0.4 mm 2 m/s 743 mmHg 94%
    03:00 +15°C° 0.4 mm 2 m/s 742 mmHg 94%
    04:00 +14°C° 0.4 mm 2 m/s 742 mmHg 95%
    05:00 +13°C° 0.8 mm 3 m/s 742 mmHg 94%
    06:00 +13°C° 0.8 mm 3 m/s 742 mmHg 94%
    07:00 +13°C° 0.8 mm 3 m/s 742 mmHg 93%
    08:00 +13°C° 0.8 mm 3 m/s 743 mmHg 92%
    09:00 +13°C° 0.8 mm 3 m/s 743 mmHg 90%
    10:00 +13°C° 0.8 mm 3 m/s 743 mmHg 89%
    11:00 +13°C° 0.5 mm 3 m/s 743 mmHg 85%
    12:00 +13°C° 0.5 mm 3 m/s 744 mmHg 82%
    13:00 +14°C° 0.5 mm 3 m/s 744 mmHg 78%
    14:00 +15°C° 0.1 mm 2 m/s 744 mmHg 75%
    15:00 +15°C° 0.1 mm 2 m/s 744 mmHg 72%
    16:00 +16°C° 0.1 mm 1 m/s 745 mmHg 69%
    17:00 +15°C° 0 mm 1 m/s 745 mmHg 73%
    18:00 +15°C° 0 mm 1 m/s 745 mmHg 76%
    19:00 +14°C° 0 mm 1 m/s 746 mmHg 79%
    20:00 +13°C° 0 mm 1 m/s 747 mmHg 82%
    21:00 +12°C° 0 mm 1 m/s 747 mmHg 85%
    22:00 +11°C° 0 mm 1 m/s 748 mmHg 88%
    23:00 +11°C° 0 mm 1 m/s 748 mmHg 88%

    Après-demain, 29 Mai, Mercredi

    Heure Température Précipitation Vent Pression Humidité
    00:00 +10°C° 0 mm 1 m/s 748 mmHg 88%
    01:00 +10°C° 0 mm 1 m/s 749 mmHg 89%
    02:00 +9°C° 0 mm 1 m/s 749 mmHg 89%
    03:00 +9°C° 0 mm 1 m/s 750 mmHg 90%
    04:00 +8°C° 0 mm 1 m/s 750 mmHg 91%
    05:00 +8°C° 0 mm 2 m/s 751 mmHg 85%
    06:00 +9°C° 0 mm 2 m/s 751 mmHg 79%
    07:00 +10°C° 0 mm 2 m/s 752 mmHg 72%
    08:00 +12°C° 0 mm 2 m/s 752 mmHg 65%
    09:00 +14°C° 0 mm 2 m/s 752 mmHg 58%
    10:00 +15°C° 0 mm 2 m/s 753 mmHg 51%
    11:00 +16°C° 0 mm 2 m/s 753 mmHg 49%
    12:00 +17°C° 0 mm 2 m/s 753 mmHg 46%
    13:00 +18°C° 0 mm 2 m/s 753 mmHg 43%
    14:00 +18°C° 0 mm 2 m/s 753 mmHg 43%
    15:00 +18°C° 0 mm 2 m/s 753 mmHg 43%
    16:00 +18°C° 0 mm 2 m/s 753 mmHg 43%
    17:00 +18°C° 0 mm 1 m/s 753 mmHg 48%
    18:00 +18°C° 0 mm 1 m/s 753 mmHg 54%
    19:00 +16°C° 0 mm 1 m/s 753 mmHg 60%
    20:00 +14°C° 0 mm 1 m/s 753 mmHg 62%
    21:00 +12°C° 0 mm 1 m/s 753 mmHg 65%
    22:00 +11°C° 0 mm 1 m/s 754 mmHg 67%
    23:00 +10°C° 0 mm 1 m/s 754 mmHg 70%

    30 Mai, Jeudi

    Heure Température Précipitation Vent Pression Humidité
    00:00 +10°C° 0 mm 1 m/s 754 mmHg 72%
    01:00 +9°C° 0 mm 1 m/s 754 mmHg 74%
    02:00 +9°C° 0 mm 1 m/s 754 mmHg 75%
    03:00 +9°C° 0 mm 1 m/s 754 mmHg 76%
    04:00 +8°C° 0 mm 2 m/s 754 mmHg 77%
    05:00 +10°C° 0 mm 2 m/s 754 mmHg 73%
    06:00 +12°C° 0 mm 3 m/s 754 mmHg 69%
    07:00 +14°C° 0 mm 3 m/s 754 mmHg 65%
    08:00 +16°C° 0 mm 3 m/s 753 mmHg 61%
    09:00 +18°C° 0 mm 3 m/s 753 mmHg 57%
    10:00 +20°C° 0 mm 4 m/s 753 mmHg 53%
    11:00 +21°C° 0 mm 4 m/s 753 mmHg 53%
    12:00 +21°C° 0 mm 4 m/s 753 mmHg 52%
    13:00 +22°C° 0 mm 4 m/s 753 mmHg 52%
    14:00 +21°C° 0 mm 4 m/s 753 mmHg 55%
    15:00 +21°C° 0 mm 4 m/s 753 mmHg 59%
    16:00 +21°C° 0 mm 4 m/s 752 mmHg 63%
    17:00 +20°C° 0 mm 3 m/s 752 mmHg 68%
    18:00 +19°C° 0 mm 3 m/s 752 mmHg 73%
    19:00 +18°C° 0 mm 2 m/s 753 mmHg 78%
    20:00 +17°C° 0 mm 2 m/s 753 mmHg 83%
    21:00 +15°C° 0 mm 2 m/s 753 mmHg 88%
    22:00 +13°C° 0 mm 3 m/s 753 mmHg 93%
    23:00 +13°C° 0 mm 3 m/s 753 mmHg 93%

    31 Mai, Vendredi

    Heure Température Précipitation Vent Pression Humidité
    00:00 +13°C° 0 mm 3 m/s 753 mmHg 94%
    01:00 +12°C° 0 mm 3 m/s 753 mmHg 94%
    02:00 +12°C° 0 mm 3 m/s 753 mmHg 95%
    03:00 +12°C° 0 mm 3 m/s 752 mmHg 95%
    04:00 +12°C° 0 mm 3 m/s 752 mmHg 96%
    05:00 +14°C° 0 mm 4 m/s 752 mmHg 92%
    06:00 +15°C° 0 mm 4 m/s 752 mmHg 87%
    07:00 +16°C° 0 mm 5 m/s 752 mmHg 82%
    08:00 +16°C° 0.7 mm 5 m/s 752 mmHg 85%
    09:00 +16°C° 0.7 mm 5 m/s 752 mmHg 87%
    10:00 +16°C° 0.7 mm 5 m/s 752 mmHg 89%
    11:00 +16°C° 0.6 mm 5 m/s 752 mmHg 89%
    12:00 +16°C° 0.6 mm 5 m/s 752 mmHg 90%
    13:00 +16°C° 0.6 mm 5 m/s 752 mmHg 90%
    14:00 +16°C° 0.6 mm 5 m/s 752 mmHg 88%
    15:00 +16°C° 0.6 mm 6 m/s 753 mmHg 87%
    16:00 +16°C° 0.6 mm 6 m/s 753 mmHg 85%
    17:00 +15°C° 0.1 mm 5 m/s 753 mmHg 86%
    18:00 +14°C° 0.1 mm 5 m/s 754 mmHg 86%
    19:00 +13°C° 0.1 mm 4 m/s 754 mmHg 87%
    20:00 +12°C° 0.1 mm 4 m/s 755 mmHg 88%
    21:00 +11°C° 0.1 mm 4 m/s 756 mmHg 88%
    22:00 +10°C° 0.1 mm 3 m/s 757 mmHg 89%
    23:00 +10°C° 0 mm 3 m/s 757 mmHg 87%

    1 Juin, Samedi

    Heure Température Précipitation Vent Pression Humidité
    00:00 +8°C° 0 mm 4 m/s 757 mmHg 86%
    01:00 +8°C° 0 mm 4 m/s 758 mmHg 84%
    02:00 +8°C° 0 mm 3 m/s 758 mmHg 84%
    03:00 +7°C° 0 mm 3 m/s 758 mmHg 85%
    04:00 +5°C° 0 mm 3 m/s 758 mmHg 85%
    05:00 +7°C° 0 mm 3 m/s 759 mmHg 82%
    06:00 +8°C° 0 mm 3 m/s 759 mmHg 79%
    07:00 +10°C° 0 mm 3 m/s 760 mmHg 75%
    08:00 +12°C° 0 mm 4 m/s 760 mmHg 68%
    09:00 +13°C° 0 mm 4 m/s 760 mmHg 61%
    10:00 +15°C° 0 mm 4 m/s 760 mmHg 54%
    11:00 +17°C° 0 mm 4 m/s 760 mmHg 51%
    12:00 +18°C° 0 mm 4 m/s 759 mmHg 48%
    13:00 +19°C° 0 mm 4 m/s 759 mmHg 45%
    14:00 +19°C° 0 mm 4 m/s 759 mmHg 45%
    15:00 +19°C° 0 mm 4 m/s 759 mmHg 45%
    16:00 +19°C° 0 mm 4 m/s 759 mmHg 44%
    17:00 +18°C° 0 mm 3 m/s 759 mmHg 50%
    18:00 +17°C° 0 mm 2 m/s 759 mmHg 55%
    19:00 +16°C° 0 mm 2 m/s 759 mmHg 61%
    20:00 +14°C° 0 mm 1 m/s 759 mmHg 65%
    21:00 +13°C° 0 mm 1 m/s 760 mmHg 70%
    22:00 +11°C° 0 mm 1 m/s 760 mmHg 74%
    23:00 +10°C° 0 mm 1 m/s 760 mmHg 76%
    Voir plus